• En Estados Unidos
  • Lista de países
  • Para 7 días
  • Temperatura del agua
  • Mapa Satelital
  • El tiempo en el mapa
  • Informadores
  • user-avatar
    Iniciar sesión

    Tiempo cada hora Oran

    Hoy, 17 Enero, Miércoles

    Tiempo Temperatura Precipitaciones Viento Presión Humedad
    00:00 +11°C° 0 mm 3 mps 758 mmHg 63%
    01:00 +11°C° 0 mm 3 mps 758 mmHg 63%
    02:00 +10°C° 0 mm 3 mps 757 mmHg 63%
    03:00 +10°C° 0 mm 3 mps 757 mmHg 62%
    04:00 +10°C° 0 mm 3 mps 757 mmHg 61%
    05:00 +10°C° 0 mm 2 mps 757 mmHg 60%
    06:00 +9°C° 0 mm 2 mps 756 mmHg 59%
    07:00 +12°C° 0 mm 2 mps 757 mmHg 53%
    08:00 +14°C° 0 mm 2 mps 757 mmHg 48%
    09:00 +16°C° 0 mm 2 mps 757 mmHg 43%
    10:00 +19°C° 0 mm 1 mps 757 mmHg 38%
    11:00 +20°C° 0 mm 1 mps 757 mmHg 33%
    12:00 +21°C° 0 mm 1 mps 757 mmHg 28%
    13:00 +22°C° 0 mm 1 mps 756 mmHg 28%
    14:00 +21°C° 0 mm 2 mps 756 mmHg 28%
    15:00 +21°C° 0 mm 2 mps 756 mmHg 29%
    16:00 +19°C° 0 mm 3 mps 756 mmHg 35%
    17:00 +17°C° 0 mm 3 mps 756 mmHg 41%
    18:00 +14°C° 0 mm 3 mps 756 mmHg 47%
    19:00 +14°C° 0 mm 3 mps 756 mmHg 49%
    20:00 +13°C° 0 mm 3 mps 756 mmHg 50%
    21:00 +13°C° 0 mm 3 mps 756 mmHg 52%
    22:00 +12°C° 0 mm 3 mps 756 mmHg 53%
    23:00 +12°C° 0 mm 3 mps 756 mmHg 53%

    Mañana, 18 Enero, Jueves

    Tiempo Temperatura Precipitaciones Viento Presión Humedad
    00:00 +12°C° 0 mm 3 mps 756 mmHg 54%
    01:00 +12°C° 0 mm 4 mps 756 mmHg 54%
    02:00 +11°C° 0 mm 4 mps 756 mmHg 53%
    03:00 +11°C° 0 mm 4 mps 756 mmHg 53%
    04:00 +10°C° 0 mm 5 mps 756 mmHg 53%
    05:00 +10°C° 0 mm 5 mps 756 mmHg 52%
    06:00 +10°C° 0 mm 5 mps 756 mmHg 51%
    07:00 +12°C° 0 mm 5 mps 756 mmHg 48%
    08:00 +14°C° 0 mm 5 mps 756 mmHg 45%
    09:00 +15°C° 0 mm 5 mps 756 mmHg 42%
    10:00 +17°C° 0 mm 5 mps 756 mmHg 37%
    11:00 +19°C° 0 mm 5 mps 756 mmHg 32%
    12:00 +21°C° 0 mm 5 mps 755 mmHg 27%
    13:00 +21°C° 0 mm 5 mps 755 mmHg 26%
    14:00 +22°C° 0 mm 5 mps 754 mmHg 26%
    15:00 +23°C° 0 mm 5 mps 753 mmHg 25%
    16:00 +20°C° 0 mm 5 mps 753 mmHg 33%
    17:00 +17°C° 0 mm 6 mps 753 mmHg 42%
    18:00 +15°C° 0 mm 6 mps 753 mmHg 50%
    19:00 +15°C° 0 mm 5 mps 753 mmHg 50%
    20:00 +15°C° 0 mm 5 mps 753 mmHg 51%
    21:00 +15°C° 0 mm 5 mps 753 mmHg 51%
    22:00 +14°C° 0 mm 5 mps 753 mmHg 51%
    23:00 +14°C° 0 mm 5 mps 753 mmHg 50%

    Pasado mañana, 19 Enero, Viernes

    Tiempo Temperatura Precipitaciones Viento Presión Humedad
    00:00 +14°C° 0 mm 4 mps 753 mmHg 50%
    01:00 +14°C° 0 mm 4 mps 752 mmHg 51%
    02:00 +14°C° 0 mm 4 mps 752 mmHg 52%
    03:00 +14°C° 0 mm 3 mps 752 mmHg 52%
    04:00 +13°C° 0 mm 3 mps 752 mmHg 54%
    05:00 +13°C° 0 mm 3 mps 752 mmHg 55%
    06:00 +13°C° 0 mm 3 mps 752 mmHg 56%
    07:00 +13°C° 0 mm 3 mps 752 mmHg 57%
    08:00 +14°C° 0 mm 3 mps 752 mmHg 59%
    09:00 +14°C° 0 mm 3 mps 753 mmHg 60%
    10:00 +14°C° 0 mm 3 mps 753 mmHg 62%
    11:00 +16°C° 0 mm 3 mps 753 mmHg 65%
    12:00 +15°C° 0 mm 4 mps 753 mmHg 67%
    13:00 +15°C° 0 mm 4 mps 753 mmHg 70%
    14:00 +15°C° 0 mm 5 mps 753 mmHg 72%
    15:00 +15°C° 0 mm 5 mps 753 mmHg 75%
    16:00 +14°C° 0 mm 5 mps 753 mmHg 79%
    17:00 +14°C° 0 mm 4 mps 754 mmHg 84%
    18:00 +13°C° 0 mm 4 mps 754 mmHg 88%
    19:00 +13°C° 0 mm 4 mps 755 mmHg 89%
    20:00 +13°C° 0 mm 4 mps 755 mmHg 89%
    21:00 +13°C° 0 mm 4 mps 756 mmHg 90%
    22:00 +13°C° 0 mm 4 mps 756 mmHg 90%
    23:00 +12°C° 0 mm 3 mps 757 mmHg 90%

    20 Enero, Sábado

    Tiempo Temperatura Precipitaciones Viento Presión Humedad
    00:00 +12°C° 0 mm 3 mps 757 mmHg 90%
    01:00 +12°C° 0 mm 3 mps 757 mmHg 91%
    02:00 +12°C° 0 mm 3 mps 757 mmHg 91%
    03:00 +11°C° 0 mm 4 mps 757 mmHg 91%
    04:00 +11°C° 0 mm 3 mps 757 mmHg 91%
    05:00 +11°C° 0 mm 3 mps 757 mmHg 91%
    06:00 +11°C° 0 mm 3 mps 758 mmHg 90%
    07:00 +12°C° 0 mm 3 mps 758 mmHg 85%
    08:00 +12°C° 0 mm 3 mps 759 mmHg 80%
    09:00 +13°C° 0 mm 3 mps 759 mmHg 74%
    10:00 +14°C° 0 mm 4 mps 759 mmHg 70%
    11:00 +15°C° 0 mm 5 mps 759 mmHg 66%
    12:00 +16°C° 0 mm 5 mps 759 mmHg 62%
    13:00 +16°C° 0 mm 5 mps 759 mmHg 61%
    14:00 +16°C° 0 mm 6 mps 758 mmHg 59%
    15:00 +16°C° 0 mm 6 mps 758 mmHg 58%
    16:00 +15°C° 0 mm 5 mps 758 mmHg 65%
    17:00 +14°C° 0 mm 4 mps 758 mmHg 73%
    18:00 +13°C° 0 mm 3 mps 758 mmHg 80%
    19:00 +12°C° 0 mm 3 mps 759 mmHg 80%
    20:00 +12°C° 0 mm 3 mps 759 mmHg 79%
    21:00 +12°C° 0 mm 3 mps 760 mmHg 79%
    22:00 +12°C° 0 mm 3 mps 760 mmHg 77%
    23:00 +12°C° 0 mm 4 mps 760 mmHg 74%

    21 Enero, Domingo

    Tiempo Temperatura Precipitaciones Viento Presión Humedad
    00:00 +12°C° 0 mm 4 mps 759 mmHg 71%
    01:00 +12°C° 0 mm 4 mps 759 mmHg 70%
    02:00 +11°C° 0 mm 4 mps 759 mmHg 68%
    03:00 +11°C° 0 mm 4 mps 759 mmHg 67%
    04:00 +11°C° 0 mm 4 mps 759 mmHg 64%
    05:00 +11°C° 0 mm 4 mps 759 mmHg 62%
    06:00 +11°C° 0 mm 4 mps 760 mmHg 59%
    07:00 +12°C° 0 mm 4 mps 760 mmHg 54%
    08:00 +14°C° 0 mm 4 mps 760 mmHg 49%
    09:00 +15°C° 0 mm 4 mps 761 mmHg 45%
    10:00 +17°C° 0 mm 4 mps 761 mmHg 41%
    11:00 +19°C° 0 mm 4 mps 761 mmHg 38%
    12:00 +20°C° 0 mm 4 mps 761 mmHg 35%
    13:00 +20°C° 0 mm 4 mps 760 mmHg 36%
    14:00 +20°C° 0 mm 4 mps 760 mmHg 37%
    15:00 +20°C° 0 mm 4 mps 760 mmHg 38%
    16:00 +18°C° 0 mm 3 mps 760 mmHg 45%
    17:00 +16°C° 0 mm 3 mps 760 mmHg 51%
    18:00 +15°C° 0 mm 2 mps 761 mmHg 58%
    19:00 +14°C° 0 mm 2 mps 761 mmHg 58%
    20:00 +14°C° 0 mm 1 mps 761 mmHg 59%
    21:00 +13°C° 0 mm 1 mps 762 mmHg 60%
    22:00 +13°C° 0 mm 1 mps 762 mmHg 59%
    23:00 +13°C° 0 mm 1 mps 762 mmHg 59%

    22 Enero, Lunes

    Tiempo Temperatura Precipitaciones Viento Presión Humedad
    00:00 +12°C° 0 mm 1 mps 761 mmHg 58%
    01:00 +12°C° 0 mm 1 mps 761 mmHg 58%
    02:00 +12°C° 0 mm 1 mps 761 mmHg 57%
    03:00 +12°C° 0 mm 1 mps 761 mmHg 56%
    04:00 +12°C° 0 mm 1 mps 761 mmHg 56%
    05:00 +12°C° 0 mm 1 mps 761 mmHg 56%
    06:00 +11°C° 0 mm 1 mps 761 mmHg 55%
    07:00 +14°C° 0 mm 1 mps 761 mmHg 51%
    08:00 +16°C° 0 mm 1 mps 762 mmHg 47%
    09:00 +19°C° 0 mm 1 mps 762 mmHg 43%
    10:00 +20°C° 0 mm 1 mps 762 mmHg 39%
    11:00 +21°C° 0 mm 1 mps 762 mmHg 36%
    12:00 +20°C° 0 mm 0 mps 761 mmHg 33%
    13:00 +22°C° 0 mm 1 mps 761 mmHg 33%
    14:00 +23°C° 0 mm 1 mps 761 mmHg 32%
    15:00 +23°C° 0 mm 1 mps 760 mmHg 32%
    16:00 +21°C° 0 mm 1 mps 760 mmHg 38%
    17:00 +19°C° 0 mm 1 mps 760 mmHg 44%
    18:00 +16°C° 0 mm 1 mps 760 mmHg 49%
    19:00 +15°C° 0 mm 1 mps 760 mmHg 51%
    20:00 +15°C° 0 mm 1 mps 761 mmHg 53%
    21:00 +14°C° 0 mm 1 mps 761 mmHg 55%
    22:00 +13°C° 0 mm 0 mps 761 mmHg 56%
    23:00 +13°C° 0 mm 0 mps 761 mmHg 57%
    Mostrar más